TimeWET,TemperatureF,Dew PointF,Humidity,Sea Level PressureIn,VisibilityMPH,Wind Direction,Wind SpeedMPH,Gust SpeedMPH,PrecipitationIn,Events,Conditions,WindDirDegrees,DateUTC
12:00 AM,67,61,76,30.05,5,ENE,3.5,,,,,70,2012-10-06 00:00:00
12:00 AM,68.0,60.8,78,30.04,5.0,ENE,3.5,-,N/A,,Unknown,70,2012-10-06 00:00:00
1:00 AM,68.0,60.8,78,30.04,5.0,ENE,3.5,-,N/A,,Unknown,70,2012-10-06 01:00:00
2:00 AM,68.0,60.8,78,30.01,5.0,ESE,4.6,-,N/A,,Unknown,120,2012-10-06 02:00:00
3:00 AM,66,60,77,30.01,5,Calm,Calm,,,,Scattered Clouds,,2012-10-06 03:00:00
3:00 AM,66.2,60.8,83,30.01,5.0,Calm,Calm,-,N/A,,Unknown,0,2012-10-06 03:00:00
4:00 AM,64.4,60.8,88,30.01,5.0,WNW,4.6,-,N/A,,Unknown,290,2012-10-06 04:00:00
5:00 AM,64.4,60.8,88,30.01,5.0,SSE,3.5,-,N/A,,Unknown,150,2012-10-06 05:00:00
6:00 AM,64,60,82,30.04,5,Calm,Calm,,,,,,2012-10-06 06:00:00
6:00 AM,64.4,60.8,88,30.04,5.0,Calm,Calm,-,N/A,,Unknown,0,2012-10-06 06:00:00
7:00 AM,64.4,59.0,83,30.04,5.0,Calm,Calm,-,N/A,,Unknown,0,2012-10-06 07:00:00
8:00 AM,69.8,60.8,73,30.04,-9999.0,ENE,4.6,-,N/A,,Clear,70,2012-10-06 08:00:00
9:00 AM,77,60,45,30.06,6,NE,6.9,,,,Clear,50,2012-10-06 09:00:00
9:00 AM,77.0,60.8,57,30.06,-9999.0,NE,6.9,-,N/A,,Clear,50,2012-10-06 09:00:00
11:00 AM,89.6,59.0,36,30.04,-9999.0,NE,2.3,-,N/A,,Clear,50,2012-10-06 11:00:00
12:00 PM,94,56,19,30.03,6,ESE,1.2,,,,Clear,120,2012-10-06 12:00:00
12:00 PM,93.2,55.4,28,30.04,-9999.0,Variable,1.2,-,N/A,,Clear,0,2012-10-06 12:00:00
1:00 PM,87.8,60.8,40,30.04,-9999.0,West,13.8,-,N/A,,Clear,280,2012-10-06 13:00:00
2:00 PM,86.0,59.0,40,30.01,-9999.0,West,12.7,-,N/A,,Clear,270,2012-10-06 14:00:00
3:00 PM,87,57,26,30.01,6,West,11.5,,,,Clear,280,2012-10-06 15:00:00
3:00 PM,87.8,57.2,35,30.01,-9999.0,West,11.5,-,N/A,,Clear,280,2012-10-06 15:00:00
4:00 PM,86.0,57.2,37,30.01,-9999.0,West,11.5,-,N/A,,Clear,270,2012-10-06 16:00:00
5:00 PM,86.0,55.4,35,30.01,-9999.0,WSW,8.1,-,N/A,,Clear,240,2012-10-06 17:00:00
6:00 PM,83,57,30,30.02,6,SSW,6.9,,,,,200,2012-10-06 18:00:00
6:00 PM,82.4,57.2,42,30.01,-9999.0,SSW,6.9,-,N/A,,Clear,200,2012-10-06 18:00:00
7:00 PM,80.6,57.2,45,30.04,-9999.0,SSW,6.9,-,N/A,,Clear,200,2012-10-06 19:00:00
8:00 PM,77.0,57.2,50,30.04,-9999.0,South,5.8,-,N/A,,Clear,190,2012-10-06 20:00:00
9:00 PM,76,56,40,30.06,6,South,5.8,,,,,190,2012-10-06 21:00:00
9:00 PM,75.2,57.2,53,30.06,-9999.0,South,5.8,-,N/A,,Clear,180,2012-10-06 21:00:00
10:00 PM,71.6,57.2,60,30.06,-9999.0,West,3.5,-,N/A,,Clear,270,2012-10-06 22:00:00
11:00 PM,69.8,59.0,68,30.06,-9999.0,North,1.2,-,N/A,,Clear,350,2012-10-06 23:00:00